CW0508 Weather Reports


Display with metric or nautical units.
time (UTC)temp
F
wind
direction
speed
MPH
gust
MPH
rain 1hr
in
rain 24hr
in
rain mn
in
humidity
%
barometer
mb
20260901083218 65 231 0.0 0.0 0.01 0.01 0.01 87 1020.0
20260901082218 65 231 0.0 0.0 0.01 0.01 0.01 87 1020.0
20260901081218 65 230 0.0 0.0 0.01 0.01 0.01 86 1019.9
20260901075218 66 233 0.0 0.0 0.01 0.01 0.01 86 1020.2
20260901074218 66 231 0.0 0.0 0.01 0.01 0.01 86 1020.2
20260901073219 66 231 0.0 0.0 0.00 0.00 0.00 85 1020.2
20260901072218 66 231 0.0 0.0 0.00 0.00 0.00 85 1020.4
20260901071218 66 231 0.0 0.0 0.00 0.00 0.00 84 1020.6
20260901065218 66 231 0.0 0.0 0.00 0.00 0.00 83 1020.7
20260901063218 67 231 0.0 0.0 0.00 0.00 0.00 83 1020.9
20260901062218 67 231 0.0 0.0 0.00 0.00 0.00 82 1020.9
20260901060218 67 230 0.0 0.0 0.00 0.00 0.00 81 1020.8
20260901055218 67 231 0.0 0.0 0.00 0.00 0.00 81 1020.9
20260901054218 67 231 0.0 0.0 0.00 0.00 0.00 81 1020.8
20260901053218 67 231 0.0 0.0 0.00 0.00 0.00 80 1020.8
20260901052218 67 231 0.0 0.0 0.00 0.00 0.00 80 1020.8
20260901050218 67 231 0.0 0.0 0.00 0.00 0.00 80 1020.9
20260901045218 67 231 0.0 0.0 0.00 0.00 0.00 80 1020.9
20260901044218 67 231 0.0 0.0 0.00 0.00 0.00 80 1020.9
20260901043218 67 231 0.0 0.0 0.00 0.00 0.00 80 1020.9
20260901042218 67 232 0.0 0.0 0.00 0.00 0.00 80 1020.8
20260901033219 68 231 0.0 0.0 0.00 0.00 0.00 80 1020.9
20260901030218 68 231 0.0 0.0 0.00 0.00 0.00 79 1021.1
20260901025218 68 232 0.0 0.0 0.00 0.00 0.00 79 1021.1
20260901024218 68 232 0.0 0.0 0.00 0.00 0.00 78 1021.0
20260901023218 68 232 0.0 0.0 0.00 0.00 0.00 78 1020.9
20260901022218 69 230 0.0 0.0 0.00 0.00 0.00 78 1021.0
20260901020218 69 232 0.0 0.0 0.00 0.00 0.00 77 1020.8
20260901015218 69 231 0.0 0.0 0.00 0.00 0.00 77 1020.6
20260901014218 69 232 0.0 0.0 0.00 0.00 0.00 77 1020.8
20260901013218 69 232 0.0 0.0 0.00 0.00 0.00 76 1020.9
20260901012218 70 231 0.0 0.0 0.00 0.00 0.00 75 1020.9
20260901011218 70 231 0.0 0.0 0.00 0.00 0.00 75 1021.0
20260901005218 70 232 0.0 0.0 0.00 0.00 0.00 74 1021.0
20260901004218 70 231 0.0 0.0 0.00 0.00 0.00 74 1020.8
20260901003218 70 231 0.0 0.0 0.00 0.00 0.00 73 1020.9
20260901002219 71 231 0.0 0.0 0.00 0.00 0.00 73 1020.7
20260901001218 71 230 0.0 0.0 0.00 0.00 0.00 72 1020.7
20260901000218 71 231 0.0 0.0 0.00 0.00 0.00 71 1020.6
20260831235218 71 231 0.0 0.0 0.00 0.00 0.00 71 1020.6
20260831234218 72 231 0.0 0.0 0.00 0.00 0.00 70 1020.6
20260831233218 72 232 0.0 0.0 0.00 0.00 0.00 69 1020.8
20260831232218 72 231 0.0 0.0 0.00 0.00 0.00 68 1021.0
20260831231218 72 231 0.0 0.0 0.00 0.00 0.00 68 1021.0
20260831230218 73 232 0.0 0.0 0.00 0.00 0.00 68 1021.3
20260831225218 73 231 0.0 0.0 0.00 0.00 0.00 67 1021.3
20260831224218 73 232 0.0 0.0 0.00 0.00 0.00 67 1021.4
20260831223218 74 231 0.0 0.0 0.00 0.00 0.00 65 1021.3
20260831221218 75 231 0.0 0.0 0.00 0.00 0.00 64 1021.4
20260831220218 75 233 0.0 0.0 0.00 0.00 0.00 64 1021.3
20260831215218 75 232 0.0 0.0 0.00 0.00 0.00 63 1021.3
20260831214218 75 232 0.0 0.0 0.00 0.00 0.00 63 1021.3
20260831213218 76 231 0.0 3.0 0.00 0.00 0.00 62 1021.3
20260831211218 76 238 0.0 5.0 0.00 0.00 0.00 61 1021.0
20260831210218 76 238 0.0 5.0 0.00 0.00 0.00 61 1021.2
20260831205218 76 208 0.0 6.0 0.00 0.00 0.00 62 1021.2
20260831203218 76 213 0.0 2.0 0.00 0.00 0.00 62 1021.2
20260831202218 76 212 0.0 1.0 0.00 0.00 0.00 61 1021.0
20260831201218 76 213 0.0 1.0 0.00 0.00 0.00 61 1021.2
20260831200218 76 213 1.0 1.0 0.00 0.00 0.00 60 1021.2
20260831195218 76 212 0.0 0.0 0.00 0.00 0.00 60 1021.3
20260831194218 76 212 0.0 2.0 0.00 0.00 0.00 60 1021.4
20260831193218 77 212 0.0 0.0 0.00 0.00 0.00 59 1021.3
20260831192218 77 213 0.0 1.0 0.00 0.00 0.00 58 1021.4
20260831191218 77 213 0.0 4.0 0.00 0.00 0.00 58 1021.6
20260831190218 77 213 0.0 4.0 0.00 0.00 0.00 58 1021.9
20260831185218 77 213 0.0 1.0 0.00 0.00 0.00 58 1022.0
20260831184218 77 213 0.0 2.0 0.00 0.00 0.00 57 1022.1
20260831183218 78 213 0.0 1.0 0.00 0.00 0.00 58 1022.1
20260831182218 78 214 1.0 3.0 0.00 0.00 0.00 57 1022.1
20260831173218 80 262 0.0 7.0 0.00 0.00 0.00 56 1022.4
20260831171218 79 242 0.0 4.0 0.00 0.00 0.00 55 1022.9
20260831165218 78 248 0.0 1.0 0.00 0.00 0.00 57 1023.1
20260831164218 78 248 0.0 3.0 0.00 0.00 0.00 58 1023.2
20260831163218 78 253 0.0 2.0 0.00 0.00 0.00 58 1023.5
20260831162218 78 254 0.0 3.0 0.00 0.00 0.00 58 1023.5
20260831161218 76 257 0.0 3.0 0.00 0.00 0.00 61 1023.4
20260831160218 75 263 0.0 3.0 0.00 0.00 0.00 60 1023.5
20260831155218 74 265 0.0 1.0 0.00 0.00 0.00 61 1023.7
20260831154218 73 268 0.0 1.0 0.00 0.00 0.00 63 1023.7
20260831153218 71 266 0.0 2.0 0.00 0.00 0.00 65 1023.6
20260831152218 70 272 0.0 2.0 0.00 0.00 0.00 66 1023.4
20260831151218 70 270 0.0 2.0 0.00 0.00 0.00 67 1023.6
20260831150218 69 263 0.0 0.0 0.00 0.00 0.00 70 1023.3
20260831145218 68 262 0.0 0.0 0.00 0.00 0.00 71 1023.2
20260831144218 67 262 0.0 0.0 0.00 0.00 0.00 71 1023.4
20260831143218 67 262 0.0 1.0 0.00 0.00 0.00 72 1023.3
20260831142218 66 264 0.0 1.0 0.00 0.00 0.00 73 1023.3
20260831141218 65 253 0.0 0.0 0.00 0.00 0.00 74 1023.5
20260831140218 64 253 0.0 0.0 0.00 0.00 0.00 74 1023.5
20260831134218 63 253 0.0 0.0 0.00 0.00 0.00 85 1023.8
20260831133218 63 252 0.0 0.0 0.00 0.00 0.00 87 1023.6
20260831132218 62 253 0.0 0.0 0.00 0.00 0.00 88 1023.6
20260831131218 62 253 0.0 0.0 0.00 0.00 0.00 90 1023.6
20260831130218 61 252 0.0 0.0 0.00 0.00 0.00 92 1023.5
20260831124218 60 253 0.0 0.0 0.00 0.00 0.00 93 1023.4
20260831123218 59 252 0.0 0.0 0.00 0.00 0.00 92 1023.6
20260831122218 58 252 0.0 0.0 0.00 0.00 0.00 92 1023.5
20260831121218 58 253 0.0 0.0 0.00 0.00 0.00 92 1023.3
20260831120218 57 252 0.0 0.0 0.00 0.00 0.00 91 1023.3
20260831115220 57 253 0.0 0.0 0.00 0.00 0.00 92 1023.3
20260831114217 56 252 0.0 0.0 0.00 0.00 0.00 89 1023.2
20260831113218 56 252 0.0 0.0 0.00 0.00 0.00 89 1023.0
20260831111218 56 253 0.0 0.0 0.00 0.00 0.00 88 1022.9
20260831110218 56 253 0.0 0.0 0.00 0.00 0.00 88 1022.7
20260831105218 56 252 0.0 0.0 0.00 0.00 0.00 87 1022.8
20260831104218 56 252 0.0 0.0 0.00 0.00 0.00 87 1022.6
20260831103218 56 253 0.0 0.0 0.00 0.00 0.00 87 1022.6
20260831102218 56 253 0.0 0.0 0.00 0.00 0.00 87 1022.4
20260831101218 57 253 0.0 0.0 0.00 0.00 0.00 87 1022.4
20260831100218 57 253 0.0 0.0 0.00 0.00 0.00 87 1022.6
20260831095218 57 253 0.0 0.0 0.00 0.00 0.00 87 1022.5
20260831094218 57 253 0.0 0.0 0.00 0.00 0.00 87 1022.3
20260831093218 58 253 0.0 0.0 0.00 0.00 0.00 87 1022.3
20260831092218 58 253 0.0 0.0 0.00 0.00 0.00 87 1022.1
20260831091217 58 253 0.0 0.0 0.00 0.00 0.00 87 1022.1
20260831085218 58 251 0.0 0.0 0.00 0.00 0.00 87 1021.9
20260831084218 59 253 0.0 0.0 0.00 0.00 0.00 86 1021.9